QPF
0.00 0.00 0.00 0.00 0.00 0.00 0.00 0.00 0.00 0.00 0.00 0.00 0.00 0.00 0.00 0.00 0.00 0.09 0.01 0.00 0.00 0.00 0.00 0.00 0.00 0.00 0.00 0.00 0.00 0.00 0.00 0.00 0.00 0.01 0.00 0.00 0.00 0.00 0.00 0.00 0.00 0.00 0.00 0.00 0.00 0.00 0.00 0.00 0.00
0.00 0.00 0.00 0.00 0.00 0.00 0.00 0.00 0.00 0.00 0.00 0.00 0.00 0.00 0.00 0.00 0.00 0.00 0.00 0.00 0.00 0.00 0.00 0.00 0.00 0.00 0.00 0.00 0.00 0.00 0.00 0.01 0.01 0.00 0.00 0.00 0.00 0.00 0.00 0.00 0.00 0.00 0.00 0.00 0.00 0.00 0.00 0.00 0.00
0.00 0.00 0.00 0.00 0.00 0.00 0.00 0.00 0.00 0.00 0.00 0.00 0.00 0.00 0.00 0.00 0.00 0.00 0.00 0.00 0.00 0.00 0.00 0.00 0.00 0.00 0.00 0.00 0.00 0.00 0.01 0.00 0.00 0.00 0.00 0.00 0.00 0.00 0.00 0.00 0.00 0.00 0.00 0.00 0.00 0.00 0.00 0.00 0.00
0.00 0.00 0.00 0.00 0.00 0.00 0.00 0.00 0.00 0.00 0.00 0.00 0.00 0.00 0.00 0.00 0.00 0.00 0.00 0.00 0.00 0.00 0.00 0.00 0.00 0.00 0.00 0.00 0.00 0.01 0.00 0.00 0.00 0.00 0.00 0.00 0.00 0.00 0.00 0.00 0.00 0.00 0.00 0.00 0.00 0.00 0.00 0.00 0.00
0.00 0.00 0.00 0.00 0.00 0.00 0.00 0.00 0.00 0.00 0.00 0.00 0.00 0.00 0.00 0.00 0.00 0.00 0.00 0.00 0.00 0.00 0.00 0.00 0.00 0.00 0.00 0.00 0.01 0.01 0.00 0.00 0.00 0.00 0.00 0.00 0.00 0.00 0.00 0.00 0.00 0.00 0.00 0.00 0.00 0.00 0.00 0.00 0.00
0.00 0.00 0.00 0.00 0.00 0.00 0.00 0.00 0.00 0.00 0.00 0.00 0.00 0.00 0.00 0.00 0.00 0.00 0.00 0.00 0.00 0.00 0.00 0.00 0.00 0.00 0.00 0.00 0.01 0.00 0.00 0.00 0.00 0.00 0.00 0.00 0.00 0.00 0.00 0.00 0.00 0.00 0.00 0.00 0.00 0.00 0.00 0.00 0.00
0.00 0.00 0.00 0.00 0.00 0.00 0.00 0.00 0.00 0.00 0.00 0.00 0.00 0.00 0.00 0.00 0.00 0.00 0.00 0.00 0.00 0.00 0.00 0.00 0.00 0.00 0.00 0.01 0.00 0.00 0.00 0.00 0.00 0.00 0.00 0.00 0.00 0.00 0.00 0.00 0.00 0.00 0.00 0.00 0.00 0.00 0.00 0.00 0.00
0.00 0.00 0.00 0.00 0.00 0.00 0.00 0.00 0.00 0.00 0.00 0.00 0.00 0.00 0.00 0.00 0.00 0.00 0.00 0.00 0.00 0.00 0.00 0.00 0.00 0.00 0.00 0.00 0.00 0.00 0.00 0.00 0.00 0.00 0.00 0.00 0.00 0.00 0.00 0.00 0.00 0.00 0.00 0.00 0.00 0.00 0.00 0.00 0.00
0.00 0.00 0.00 0.00 0.00 0.00 0.00 0.00 0.00 0.00 0.00 0.00 0.00 0.00 0.00 0.00 0.00 0.00 0.00 0.00 0.00 0.00 0.00 0.00 0.00 0.00 0.00 0.00 0.00 0.00 0.00 0.00 0.00 0.00 0.00 0.00 0.00 0.00 0.00 0.00 0.00 0.00 0.00 0.00 0.00 0.00 0.00 0.00 0.00
0.00 0.00 0.00 0.00 0.00 0.00 0.00 0.00 0.00 0.00 0.00 0.00 0.00 0.00 0.00 0.00 0.00 0.00 0.00 0.00 0.00 0.00 0.00 0.00 0.00 0.00 0.00 0.00 0.00 0.00 0.00 0.00 0.00 0.00 0.00 0.00 0.00 0.00 0.00 0.00 0.00 0.00 0.00 0.00 0.00 0.00 0.00 0.00 0.00
0.00 0.00 0.00 0.00 0.00 0.00 0.00 0.00 0.00 0.00 0.00 0.00 0.00 0.00 0.00 0.00 0.00 0.00 0.00 0.00 0.00 0.00 0.00 0.00 0.00 0.00 0.00 0.00 0.00 0.00 0.00 0.00 0.00 0.00 0.00 0.00 0.00 0.00 0.00 0.00 0.00 0.00 0.00 0.00 0.00 0.00 0.00 0.00 0.00
0.00 0.00 0.00 0.00 0.00 0.00 0.00 0.00 0.00 0.00 0.00 0.00 0.00 0.00 0.00 0.00 0.00 0.00 0.00 0.00 0.00 0.00 0.00 0.00 0.00 0.00 0.00 0.00 0.00 0.00 0.00 0.00 0.00 0.00 0.00 0.00 0.00 0.00 0.00 0.00 0.00 0.00 0.00 0.00 0.00 0.00 0.00 0.00 0.00
0.00 0.00 0.00 0.00 0.00 0.00 0.00 0.00 0.00 0.00 0.00 0.00 0.00 0.00 0.00 0.00 0.00 0.00 0.00 0.00 0.00 0.00 0.00 0.00 0.00 0.00 0.00 0.00 0.00 0.00 0.00 0.00 0.00 0.00 0.00 0.00 0.00 0.00 0.00 0.00 0.00 0.00 0.00 0.00 0.00 0.00 0.00 0.00 0.00
0.00 0.00 0.00 0.00 0.00 0.00 0.00 0.00 0.00 0.00 0.00 0.00 0.00 0.00 0.00 0.00 0.00 0.00 0.00 0.00 0.00 0.00 0.00 0.00 0.00 0.00 0.00 0.00 0.00 0.00 0.00 0.00 0.00 0.00 0.00 0.00 0.00 0.00 0.00 0.00 0.00 0.00 0.00 0.00 0.00 0.00 0.00 0.00 0.00
0.00 0.00 0.00 0.00 0.00 0.00 0.00 0.00 0.00 0.00 0.00 0.00 0.00 0.00 0.00 0.00 0.00 0.00 0.00 0.00 0.00 0.00 0.00 0.00 0.00 0.00 0.00 0.00 0.00 0.00 0.00 0.00 0.00 0.01 0.00 0.00 0.00 0.00 0.00 0.00 0.00 0.00 0.00 0.00 0.00 0.00 0.00 0.00 0.00
0.00 0.00 0.00 0.00 0.00 0.00 0.00 0.00 0.00 0.00 0.00 0.00 0.00 0.00 0.00 0.00 0.00 0.00 0.00 0.00 0.00 0.00 0.00 0.00 0.00 0.00 0.00 0.00 0.00 0.00 0.00 0.00 0.02 0.03 0.02 0.00 0.00 0.00 0.00 0.00 0.00 0.00 0.00 0.00 0.00 0.00 0.00 0.00 0.00
0.00 0.00 0.00 0.00 0.00 0.00 0.00 0.00 0.00 0.00 0.00 0.00 0.00 0.00 0.00 0.00 0.00 0.00 0.00 0.00 0.00 0.00 0.00 0.00 0.00 0.00 0.00 0.00 0.02 0.01 0.00 0.01 0.00 0.01 0.01 0.00 0.00 0.00 0.00 0.00 0.00 0.00 0.00 0.00 0.00 0.00 0.00 0.00 0.00
0.00 0.00 0.00 0.00 0.00 0.00 0.00 0.00 0.00 0.00 0.00 0.00 0.00 0.00 0.00 0.00 0.00 0.00 0.00 0.00 0.00 0.00 0.00 0.00 0.00 0.00 0.00 0.02 0.04 0.01 0.00 0.00 0.00 0.00 0.01 0.00 0.00 0.00 0.00 0.00 0.00 0.00 0.00 0.00 0.00 0.00 0.00 0.00 0.00
0.00 0.00 0.00 0.00 0.00 0.00 0.00 0.00 0.00 0.00 0.00 0.00 0.00 0.00 0.00 0.00 0.00 0.00 0.00 0.00 0.00 0.00 0.00 0.00 0.00 0.00 0.01 0.02 0.00 0.00 0.01 0.00 0.01 0.00 0.00 0.00 0.00 0.00 0.00 0.00 0.00 0.00 0.00 0.00 0.00 0.00 0.00 0.00 0.00
0.00 0.00 0.00 0.00 0.00 0.00 0.00 0.00 0.00 0.00 0.00 0.00 0.00 0.00 0.00 0.00 0.00 0.00 0.00 0.00 0.00 0.00 0.00 0.00 0.00 0.00 0.01 0.05 0.01 0.02 0.00 0.00 0.02 0.01 0.00 0.00 0.00 0.00 0.00 0.00 0.00 0.00 0.00 0.00 0.00 0.00 0.00 0.00 0.00
0.00 0.00 0.00 0.00 0.00 0.00 0.00 0.00 0.00 0.00 0.00 0.00 0.00 0.00 0.00 0.00 0.00 0.00 0.00 0.00 0.00 0.00 0.00 0.01 0.00 0.00 0.00 0.01 0.03 0.05 0.00 0.00 0.00 0.00 0.00 0.00 0.00 0.00 0.00 0.00 0.00 0.00 0.00 0.00 0.00 0.00 0.00 0.00 0.00
0.00 0.00 0.00 0.00 0.00 0.00 0.00 0.00 0.00 0.00 0.00 0.00 0.00 0.00 0.00 0.00 0.00 0.00 0.00 0.00 0.00 0.00 0.01 0.01 0.00 0.01 0.00 0.00 0.00 0.01 0.00 0.00 0.00 0.00 0.00 0.00 0.00 0.00 0.00 0.00 0.00 0.00 0.00 0.00 0.00 0.00 0.00 0.00 0.00
0.00 0.00 0.00 0.00 0.00 0.00 0.00 0.00 0.00 0.00 0.00 0.00 0.00 0.00 0.00 0.00 0.00 0.00 0.00 0.00 0.00 0.00 0.00 0.00 0.00 0.01 0.00 0.00 0.00 0.00 0.00 0.00 0.00 0.00 0.00 0.00 0.00 0.00 0.00 0.00 0.00 0.00 0.00 0.00 0.00 0.00 0.00 0.00 0.00
0.00 0.00 0.00 0.00 0.00 0.00 0.00 0.00 0.00 0.00 0.00 0.00 0.00 0.00 0.00 0.00 0.00 0.00 0.00 0.00 0.00 0.01 0.00 0.00 0.01 0.02 0.00 0.00 0.00 0.00 0.00 0.00 0.00 0.00 0.00 0.00 0.00 0.00 0.00 0.00 0.00 0.00 0.00 0.00 0.00 0.00 0.00 0.00 0.00
0.00 0.00 0.00 0.00 0.00 0.00 0.00 0.00 0.00 0.00 0.00 0.00 0.00 0.00 0.00 0.00 0.00 0.00 0.00 0.00 0.00 0.01 0.00 0.00 0.00 0.02 0.02 0.00 0.00 0.00 0.00 0.00 0.00 0.00 0.00 0.00 0.00 0.00 0.00 0.00 0.00 0.00 0.00 0.00 0.00 0.00 0.00 0.00 0.00
0.00 0.00 0.00 0.00 0.00 0.00 0.00 0.00 0.00 0.00 0.00 0.00 0.00 0.00 0.00 0.00 0.00 0.00 0.00 0.00 0.00 0.00 0.00 0.00 0.00 0.00 0.02 0.01 0.00 0.00 0.00 0.00 0.00 0.00 0.00 0.00 0.00 0.00 0.00 0.00 0.00 0.00 0.00 0.00 0.00 0.00 0.00 0.00 0.00
0.00 0.00 0.00 0.00 0.00 0.00 0.00 0.00 0.00 0.00 0.00 0.00 0.00 0.00 0.00 0.00 0.00 0.00 0.00 0.00 0.00 0.00 0.00 0.00 0.00 0.00 0.00 0.01 0.01 0.00 0.00 0.00 0.00 0.00 0.00 0.00 0.00 0.00 0.00 0.00 0.00 0.00 0.00 0.00 0.00 0.00 0.00 0.00 0.00
0.00 0.00 0.00 0.00 0.00 0.00 0.00 0.00 0.00 0.00 0.00 0.00 0.00 0.00 0.00 0.00 0.00 0.00 0.00 0.00 0.00 0.00 0.00 0.00 0.00 0.00 0.00 0.00 0.01 0.00 0.00 0.00 0.00 0.00 0.00 0.00 0.00 0.00 0.00 0.00 0.00 0.00 0.00 0.00 0.00 0.00 0.00 0.00 0.00
0.00 0.00 0.00 0.00 0.00 0.00 0.00 0.00 0.00 0.00 0.00 0.00 0.00 0.00 0.00 0.00 0.00 0.00 0.00 0.00 0.00 0.00 0.00 0.00 0.00 0.00 0.00 0.00 0.00 0.00 0.00 0.00 0.00 0.00 0.00 0.00 0.00 0.01 0.01 0.00 0.00 0.00 0.00 0.00 0.00 0.00 0.00 0.00 0.00
0.00 0.00 0.00 0.00 0.00 0.00 0.00 0.00 0.00 0.00 0.00 0.00 0.00 0.00 0.00 0.00 0.00 0.00 0.00 0.00 0.00 0.00 0.00 0.00 0.00 0.00 0.00 0.00 0.00 0.00 0.00 0.00 0.00 0.00 0.00 0.00 0.00 0.00 0.01 0.00 0.00 0.00 0.00 0.00 0.00 0.00 0.00 0.00 0.00
MSLP
1009.89 1009.21 1007.94 1005.94 1004.46 1001.02 1000.93 1001.76 1002.82 1002.65 1002.69 1003.98 1004.31 1004.25 1004.72 1005.46 1006.11 1008.02 1008.96 1009.07 1009.57 1011.14 1013.12 1013.94 1014.66 1015.00 1015.29 1015.52 1015.72 1015.94 1016.07 1016.15 1016.05 1016.02 1016.12 1016.20 1016.10 1016.35 1016.31 1016.34 1016.38 1016.40 1016.31 1016.21 1016.15 1016.00 1015.77 1015.63 1015.49
1008.27 1007.56 1006.72 1004.64 1002.11 999.93 1000.78 1001.65 1002.09 1002.55 1003.74 1004.21 1004.84 1004.41 1004.62 1005.89 1007.14 1008.33 1009.05 1009.43 1010.06 1011.42 1012.87 1013.85 1014.81 1015.11 1015.47 1015.74 1015.90 1016.08 1016.17 1016.24 1016.31 1016.41 1016.56 1016.72 1016.63 1016.74 1016.63 1016.65 1016.66 1016.59 1016.52 1016.39 1016.31 1016.25 1016.10 1015.94 1015.74
1009.07 1007.48 1005.89 1002.99 1000.62 999.60 1000.70 1001.77 1002.11 1003.11 1004.00 1004.25 1004.22 1005.19 1005.48 1006.83 1007.70 1008.14 1008.92 1009.71 1010.18 1011.63 1012.60 1014.19 1014.93 1015.34 1015.69 1015.94 1016.15 1016.22 1016.32 1016.44 1016.61 1016.73 1016.81 1016.88 1016.90 1017.00 1017.07 1016.91 1016.90 1016.69 1016.63 1016.52 1016.41 1016.41 1016.28 1016.08 1015.86
1007.27 1006.35 1005.27 1002.59 1000.00 1000.73 1001.35 1002.16 1002.62 1002.94 1004.09 1004.28 1004.38 1004.90 1006.94 1007.99 1008.03 1008.57 1009.62 1009.90 1010.82 1011.72 1012.52 1014.75 1015.22 1015.56 1015.85 1016.03 1016.27 1016.41 1016.60 1016.80 1016.92 1017.00 1017.13 1017.11 1017.12 1017.28 1017.23 1017.21 1017.08 1016.82 1016.82 1016.77 1016.71 1016.56 1016.34 1016.25 1016.07
1007.02 1005.19 1003.00 1001.27 1000.34 1001.09 1001.61 1002.58 1002.69 1002.92 1003.69 1003.54 1004.36 1005.21 1006.98 1008.17 1008.64 1009.34 1009.69 1010.17 1010.78 1011.32 1012.97 1014.57 1015.37 1015.74 1016.00 1016.18 1016.30 1016.61 1016.78 1017.12 1017.39 1017.36 1017.34 1017.45 1017.47 1017.41 1017.30 1017.38 1017.33 1017.18 1017.10 1016.93 1016.88 1016.81 1016.65 1016.47 1016.25
1005.54 1004.07 1002.08 1000.06 1000.06 1001.64 1001.46 1002.15 1002.38 1002.40 1002.68 1003.72 1004.24 1004.93 1007.01 1008.37 1008.87 1009.35 1009.60 1009.80 1010.46 1011.08 1012.56 1014.55 1015.55 1015.93 1016.13 1016.38 1016.54 1016.87 1017.19 1017.37 1017.47 1017.57 1017.66 1017.77 1017.72 1017.61 1017.58 1017.65 1017.61 1017.47 1017.26 1017.16 1017.12 1017.07 1017.02 1016.76 1016.52
1004.99 1002.93 1001.36 1000.06 1000.22 1001.07 1001.63 1002.27 1001.90 1002.35 1002.68 1002.91 1003.81 1003.71 1007.11 1008.09 1008.48 1008.94 1009.37 1009.57 1010.26 1010.78 1012.00 1013.80 1014.85 1015.89 1016.37 1016.55 1016.83 1017.27 1017.47 1017.64 1017.65 1017.85 1018.03 1018.07 1017.84 1017.99 1017.78 1017.97 1017.89 1017.80 1017.62 1017.46 1017.38 1017.36 1017.17 1016.96 1016.69
1004.63 1003.26 1001.52 1000.73 1000.35 1001.01 1002.24 1002.09 1002.74 1002.60 1001.79 1003.62 1003.77 1002.36 1006.20 1007.60 1008.35 1008.81 1009.02 1009.52 1010.10 1010.73 1011.35 1012.52 1013.98 1015.06 1015.50 1016.30 1017.15 1017.48 1017.63 1017.80 1018.08 1018.31 1018.19 1018.04 1017.81 1017.88 1017.99 1018.05 1018.16 1018.07 1018.00 1017.84 1017.69 1017.53 1017.37 1017.22 1016.69
1005.20 1003.37 1001.15 1000.38 1000.81 1000.81 1001.92 1001.44 1002.42 1003.21 1002.97 1003.65 1004.15 1004.66 1005.73 1007.50 1008.19 1008.60 1008.81 1009.27 1009.86 1010.59 1011.08 1011.52 1013.03 1014.05 1014.14 1015.16 1016.97 1017.56 1017.74 1018.06 1018.29 1018.25 1018.12 1017.98 1016.65 1017.23 1017.46 1018.49 1018.51 1018.44 1018.32 1018.21 1017.85 1017.56 1017.26 1017.19 1016.76
1004.46 1002.76 1000.94 1000.86 1001.09 1001.37 1001.72 1001.96 1002.19 1002.64 1002.50 1003.04 1004.16 1005.48 1006.35 1007.65 1008.01 1008.32 1008.71 1009.09 1009.75 1010.60 1011.13 1011.49 1012.88 1013.21 1013.28 1014.36 1016.48 1016.53 1016.94 1017.10 1017.14 1017.08 1017.39 1016.75 1017.37 1017.63 1017.66 1018.46 1018.54 1018.53 1018.43 1018.10 1017.76 1017.34 1016.76 1016.59 1015.51
1003.98 1002.61 1001.67 1002.24 1002.66 1002.46 1002.18 1001.94 1002.11 1002.23 1001.55 1001.96 1002.98 1004.77 1006.37 1007.29 1007.92 1008.33 1008.78 1009.20 1009.75 1010.60 1011.35 1011.78 1013.21 1013.43 1013.29 1013.98 1015.42 1015.53 1016.04 1016.64 1017.11 1017.47 1017.30 1017.66 1017.51 1017.61 1017.29 1017.53 1017.79 1017.68 1017.95 1017.33 1017.27 1016.80 1016.69 1016.42 1015.91
1003.77 1003.36 1002.98 1002.61 1002.68 1002.81 1002.27 1001.94 1002.03 1001.95 1001.98 1002.71 1003.19 1004.22 1006.18 1007.23 1007.84 1008.29 1008.85 1009.39 1010.21 1011.23 1011.75 1012.29 1013.46 1014.06 1014.00 1014.17 1015.10 1015.26 1015.76 1016.53 1016.42 1017.22 1017.61 1017.83 1017.41 1017.72 1017.69 1017.35 1017.35 1017.39 1017.17 1017.25 1016.98 1017.43 1017.55 1017.02 1016.65
1004.09 1003.23 1003.37 1003.18 1003.18 1002.84 1002.64 1002.33 1001.92 1001.72 1001.78 1002.57 1003.55 1003.90 1005.74 1006.54 1007.28 1007.91 1008.66 1009.51 1010.13 1011.14 1012.01 1012.89 1013.75 1014.48 1014.77 1015.05 1015.05 1015.51 1016.08 1016.34 1016.97 1017.14 1017.65 1017.49 1017.56 1018.07 1017.88 1018.00 1017.55 1017.58 1017.32 1017.43 1017.32 1017.59 1017.32 1017.24 1017.12
1003.79 1003.63 1003.30 1003.07 1002.86 1002.76 1002.77 1002.31 1002.25 1001.78 1002.43 1002.37 1003.65 1003.93 1005.05 1005.89 1006.79 1007.67 1008.47 1009.22 1010.03 1010.96 1012.17 1012.99 1013.74 1014.63 1014.96 1015.43 1015.65 1016.21 1016.68 1017.15 1017.12 1017.70 1018.15 1018.09 1017.89 1018.25 1018.04 1018.00 1017.68 1017.65 1017.60 1017.53 1017.45 1017.41 1017.31 1017.15 1017.20
1004.09 1003.69 1003.10 1002.96 1002.84 1002.73 1002.98 1002.49 1002.09 1001.87 1002.56 1002.75 1003.51 1004.22 1004.66 1005.64 1006.43 1007.32 1008.14 1008.80 1009.67 1010.64 1011.98 1012.85 1013.57 1014.33 1015.01 1015.42 1015.98 1016.08 1016.70 1016.85 1017.61 1017.97 1018.35 1018.46 1018.42 1018.50 1018.68 1017.85 1017.78 1017.76 1018.17 1018.30 1018.08 1017.91 1017.67 1017.30 1017.25
1003.55 1002.89 1001.77 1002.57 1002.81 1002.85 1003.47 1001.58 1000.97 1002.03 1002.41 1002.65 1002.96 1004.49 1005.15 1005.53 1006.21 1007.12 1007.87 1008.75 1009.62 1010.24 1011.54 1012.55 1013.06 1013.67 1014.36 1014.83 1015.44 1015.64 1016.57 1016.88 1017.62 1017.85 1018.23 1018.44 1018.44 1018.61 1018.53 1017.98 1018.14 1018.13 1018.16 1017.80 1017.62 1017.69 1017.42 1017.41 1017.42
1002.47 1001.01 1001.17 1002.37 1002.84 1002.56 1002.77 1001.54 1002.24 1002.85 1002.70 1002.84 1003.32 1004.74 1005.58 1005.70 1006.32 1007.00 1007.78 1008.71 1009.54 1010.18 1011.24 1011.97 1012.47 1013.13 1014.07 1014.84 1014.72 1014.32 1015.54 1016.83 1017.48 1017.05 1017.53 1018.41 1018.35 1018.57 1018.77 1018.20 1018.38 1018.98 1018.01 1017.77 1017.69 1017.78 1017.72 1017.76 1017.66
1001.08 1001.04 1001.86 1001.81 1002.59 1002.49 1002.32 1002.27 1002.77 1003.12 1003.26 1003.43 1003.96 1004.66 1005.31 1005.95 1006.58 1007.10 1007.75 1008.60 1009.50 1010.37 1011.38 1012.16 1012.85 1013.49 1014.51 1014.90 1015.53 1016.20 1016.91 1017.20 1017.75 1018.02 1017.20 1017.97 1018.29 1018.64 1018.83 1018.44 1018.76 1018.91 1018.07 1017.83 1017.83 1018.09 1018.01 1018.07 1017.68
1002.23 1001.85 1001.59 1002.58 1003.22 1002.66 1002.96 1003.12 1003.66 1003.83 1003.75 1004.05 1004.34 1004.53 1004.69 1005.51 1006.62 1007.39 1007.80 1008.51 1009.41 1010.39 1011.21 1012.06 1012.86 1013.91 1014.91 1015.47 1016.04 1017.10 1017.07 1017.40 1017.66 1017.87 1017.67 1017.21 1018.21 1018.87 1018.81 1018.53 1018.68 1018.74 1018.46 1018.20 1018.52 1018.58 1018.68 1018.10 1018.23
1002.69 1002.20 1002.08 1003.12 1003.55 1003.16 1003.02 1003.55 1004.44 1004.44 1004.48 1004.97 1005.19 1005.35 1005.25 1005.16 1006.31 1007.66 1008.12 1008.58 1009.40 1010.34 1011.45 1012.35 1013.00 1014.47 1015.32 1015.96 1016.65 1016.85 1017.35 1017.87 1018.31 1018.54 1019.00 1017.89 1018.38 1018.98 1018.86 1018.89 1018.67 1018.81 1018.57 1018.98 1018.78 1018.78 1018.31 1018.16 1018.36
1002.67 1002.10 1002.49 1002.80 1003.36 1003.48 1003.27 1003.46 1005.64 1004.97 1004.65 1004.88 1005.67 1005.88 1006.16 1006.36 1006.19 1007.57 1008.47 1008.92 1009.31 1010.40 1011.57 1012.50 1013.97 1015.12 1015.61 1016.17 1016.63 1017.34 1017.91 1018.36 1018.52 1018.72 1019.15 1019.11 1019.13 1019.08 1019.19 1018.99 1019.12 1019.11 1019.04 1018.75 1019.01 1018.94 1018.73 1018.14 1018.19
1002.17 1003.24 1003.46 1003.32 1003.31 1002.44 1003.77 1003.50 1005.55 1004.01 1004.58 1004.96 1005.62 1006.19 1006.68 1007.19 1007.67 1008.01 1008.67 1009.47 1009.96 1010.44 1011.88 1013.46 1014.67 1015.28 1015.56 1015.94 1016.48 1016.96 1016.89 1017.50 1017.95 1018.71 1019.39 1019.65 1019.21 1019.20 1019.12 1019.05 1019.12 1019.11 1018.71 1018.82 1018.87 1018.89 1018.78 1018.86 1018.10
1003.31 1003.74 1003.56 1003.43 1003.28 1003.01 1002.92 1003.56 1005.86 1006.97 1004.77 1005.73 1005.71 1006.48 1007.13 1008.09 1008.68 1009.11 1009.63 1010.87 1011.59 1012.30 1013.06 1013.99 1014.62 1014.99 1015.36 1015.78 1016.05 1016.50 1016.46 1016.53 1018.07 1018.89 1019.47 1019.60 1019.84 1019.39 1019.03 1018.98 1019.12 1019.33 1019.34 1019.20 1019.09 1019.15 1019.23 1018.64 1018.68
1004.09 1003.85 1003.48 1003.19 1002.45 1002.63 1003.07 1003.81 1006.97 1008.05 1005.62 1005.81 1005.77 1006.65 1007.47 1008.19 1009.18 1010.16 1011.32 1011.85 1012.01 1012.75 1013.52 1014.05 1014.44 1014.66 1015.08 1015.46 1015.95 1016.10 1016.03 1016.56 1017.61 1018.25 1018.88 1018.91 1019.07 1018.84 1018.80 1018.96 1019.13 1019.38 1019.27 1019.44 1019.23 1019.22 1019.37 1019.40 1019.14
1003.97 1003.47 1002.58 1002.90 1002.20 1003.00 1003.61 1003.53 1004.52 1005.24 1005.42 1005.50 1005.82 1006.65 1007.69 1008.40 1009.21 1009.95 1010.75 1011.72 1012.08 1012.95 1013.56 1013.89 1014.14 1014.32 1014.82 1015.37 1015.90 1016.16 1016.17 1016.45 1017.17 1017.81 1017.87 1017.81 1017.82 1017.97 1018.36 1018.54 1018.83 1019.16 1019.17 1019.16 1019.03 1019.35 1019.34 1019.68 1019.58
1003.41 1003.71 1002.75 1002.20 1002.01 1003.04 1003.19 1002.64 1003.68 1004.43 1005.09 1005.45 1006.10 1006.88 1007.63 1008.44 1009.22 1009.83 1010.40 1010.93 1011.70 1012.44 1012.82 1012.99 1013.36 1013.69 1013.90 1014.87 1015.14 1015.65 1015.77 1016.21 1016.52 1016.97 1016.97 1017.58 1017.32 1017.48 1017.73 1018.23 1018.45 1018.47 1018.80 1019.05 1019.08 1019.30 1019.38 1019.55 1019.97
1003.75 1003.81 1003.90 1003.61 1003.21 1002.90 1001.98 1002.67 1003.36 1004.09 1004.57 1005.11 1005.59 1006.48 1007.25 1008.01 1008.74 1009.22 1009.75 1010.03 1010.24 1010.63 1011.33 1011.96 1012.57 1013.20 1013.37 1013.79 1014.37 1015.05 1015.45 1015.94 1015.98 1016.20 1016.81 1017.23 1017.20 1016.78 1017.51 1018.04 1018.33 1018.44 1018.53 1018.97 1019.06 1019.10 1019.29 1019.70 1020.15
1004.66 1004.79 1004.45 1004.16 1003.60 1002.89 1001.98 1002.36 1001.92 1003.56 1003.97 1004.46 1005.08 1005.74 1006.92 1007.62 1008.16 1009.25 1009.90 1010.23 1010.50 1010.78 1010.71 1011.55 1012.16 1012.56 1012.94 1013.62 1014.09 1014.22 1014.91 1015.48 1015.86 1016.58 1017.05 1017.36 1017.27 1016.93 1017.13 1017.75 1017.94 1018.21 1018.62 1018.94 1018.88 1019.33 1019.60 1019.65 1019.82
1004.73 1004.57 1005.18 1005.39 1005.10 1004.08 1003.26 1002.49 1002.74 1003.14 1003.64 1004.09 1004.36 1004.84 1006.00 1007.12 1007.86 1008.91 1009.51 1009.96 1009.91 1009.96 1010.05 1010.72 1011.47 1012.29 1013.01 1013.20 1013.37 1013.90 1014.55 1015.30 1015.91 1016.39 1016.72 1016.89 1017.12 1017.11 1017.28 1017.65 1017.91 1018.10 1018.39 1018.59 1018.85 1018.73 1018.83 1019.47 1019.56
1005.77 1005.25 1005.30 1005.35 1005.23 1005.03 1004.64 1003.60 1003.12 1003.87 1004.08 1004.59 1004.72 1004.84 1005.70 1007.30 1008.08 1008.53 1008.63 1009.29 1009.50 1009.61 1009.78 1010.12 1011.12 1011.46 1012.29 1013.02 1013.47 1014.04 1014.54 1015.11 1015.57 1016.00 1016.37 1016.71 1017.02 1017.15 1017.28 1017.37 1017.56 1017.90 1017.88 1018.18 1018.63 1018.92 1018.59 1019.29 1019.35
Thickness
5819 5824 5837 5837 5809 5840 5819 5816 5825 5818 5822 5827 5827 5818 5807 5807 5790 5757 5803 5807 5805 5791 5773 5766 5761 5758 5755 5753 5751 5748 5747 5745 5745 5745 5743 5741 5743 5739 5740 5739 5738 5738 5738 5739 5740 5740 5742 5743 5743
5830 5834 5834 5829 5815 5818 5812 5831 5819 5826 5825 5829 5820 5821 5812 5792 5805 5795 5794 5804 5800 5787 5775 5767 5759 5756 5752 5750 5748 5746 5743 5742 5742 5740 5738 5736 5738 5736 5737 5736 5736 5736 5736 5736 5737 5737 5738 5739 5741
5821 5832 5814 5820 5837 5828 5810 5827 5829 5829 5829 5823 5818 5820 5811 5791 5802 5801 5806 5802 5797 5784 5775 5762 5756 5753 5750 5747 5744 5742 5741 5739 5738 5736 5736 5735 5735 5733 5732 5734 5733 5734 5733 5734 5735 5735 5736 5737 5738
5825 5823 5822 5810 5834 5832 5825 5826 5832 5827 5825 5829 5826 5806 5807 5807 5802 5806 5802 5800 5790 5782 5775 5757 5753 5750 5747 5744 5741 5740 5738 5735 5734 5733 5732 5733 5732 5730 5730 5730 5729 5731 5730 5730 5730 5731 5733 5733 5735
5824 5822 5807 5819 5832 5831 5834 5830 5834 5823 5821 5827 5826 5804 5795 5805 5810 5804 5800 5796 5788 5784 5770 5756 5750 5746 5744 5742 5740 5736 5735 5732 5728 5730 5731 5729 5728 5728 5728 5726 5726 5727 5727 5727 5727 5727 5729 5730 5732
5807 5825 5805 5824 5833 5823 5837 5837 5834 5833 5835 5825 5819 5813 5799 5810 5804 5802 5802 5798 5792 5784 5771 5755 5747 5743 5741 5739 5737 5733 5731 5729 5727 5726 5725 5724 5724 5725 5724 5723 5722 5723 5724 5724 5724 5724 5724 5726 5728
5802 5815 5813 5837 5829 5821 5826 5839 5833 5829 5829 5827 5833 5820 5801 5803 5810 5808 5803 5801 5793 5786 5775 5759 5750 5741 5738 5736 5733 5729 5727 5724 5724 5722 5719 5719 5721 5719 5720 5717 5717 5717 5719 5720 5720 5719 5721 5722 5724
5816 5816 5811 5827 5824 5815 5827 5833 5833 5830 5827 5840 5839 5807 5793 5806 5812 5809 5806 5799 5792 5786 5780 5768 5756 5746 5742 5735 5728 5725 5723 5721 5719 5716 5716 5717 5718 5717 5715 5714 5712 5712 5713 5714 5715 5716 5717 5717 5721
5822 5800 5808 5826 5821 5828 5834 5836 5838 5839 5829 5829 5830 5825 5823 5816 5813 5805 5800 5796 5790 5785 5782 5777 5762 5753 5750 5741 5727 5722 5721 5717 5714 5714 5714 5714 5722 5716 5713 5706 5705 5706 5707 5708 5711 5713 5715 5714 5716
5806 5804 5824 5841 5838 5828 5832 5830 5830 5825 5827 5824 5821 5823 5823 5812 5806 5798 5793 5788 5785 5778 5777 5776 5762 5758 5757 5747 5730 5729 5724 5722 5721 5720 5716 5720 5713 5709 5708 5701 5701 5701 5702 5705 5708 5712 5716 5716 5721
5811 5804 5831 5825 5828 5830 5825 5828 5837 5825 5827 5836 5823 5818 5814 5807 5802 5796 5793 5789 5784 5780 5775 5773 5760 5756 5757 5751 5738 5735 5729 5724 5720 5716 5715 5710 5709 5706 5706 5703 5701 5702 5702 5707 5708 5712 5711 5713 5717
5800 5816 5820 5825 5829 5822 5819 5834 5825 5831 5831 5839 5835 5829 5812 5801 5797 5795 5790 5787 5781 5774 5771 5769 5758 5752 5751 5748 5739 5736 5731 5725 5724 5717 5712 5707 5708 5704 5700 5700 5699 5699 5702 5703 5706 5702 5702 5706 5708
5797 5811 5816 5823 5821 5822 5825 5820 5825 5830 5845 5844 5834 5830 5812 5807 5803 5802 5796 5791 5786 5774 5768 5762 5756 5749 5744 5740 5738 5734 5729 5725 5719 5715 5710 5709 5706 5700 5697 5695 5697 5696 5698 5699 5700 5697 5700 5700 5701
5810 5808 5811 5818 5818 5821 5810 5816 5822 5833 5839 5838 5827 5824 5818 5812 5806 5801 5793 5787 5783 5777 5766 5763 5755 5746 5741 5736 5732 5727 5722 5718 5715 5708 5703 5702 5701 5697 5696 5695 5696 5696 5695 5695 5695 5695 5696 5698 5697
5806 5790 5804 5809 5813 5810 5815 5799 5806 5834 5832 5827 5822 5820 5819 5813 5811 5801 5796 5790 5786 5779 5769 5762 5755 5747 5741 5736 5729 5727 5721 5718 5708 5704 5699 5695 5693 5692 5690 5695 5694 5693 5690 5688 5688 5689 5690 5692 5692
5794 5800 5792 5803 5808 5810 5801 5793 5831 5829 5825 5821 5825 5811 5810 5811 5808 5805 5800 5793 5787 5782 5771 5764 5761 5755 5749 5742 5733 5729 5718 5717 5709 5703 5698 5692 5690 5687 5687 5690 5688 5687 5686 5688 5689 5688 5689 5688 5687
5798 5799 5803 5790 5808 5806 5800 5803 5815 5819 5819 5815 5815 5805 5803 5805 5805 5803 5800 5793 5786 5782 5773 5767 5764 5758 5749 5741 5738 5741 5725 5713 5704 5703 5696 5688 5687 5684 5681 5684 5682 5677 5684 5685 5686 5684 5683 5680 5680
5796 5799 5795 5794 5801 5806 5801 5798 5804 5810 5808 5804 5804 5803 5802 5799 5797 5801 5798 5793 5786 5778 5771 5766 5760 5754 5742 5739 5731 5721 5711 5703 5696 5686 5690 5684 5682 5677 5675 5677 5674 5673 5679 5682 5680 5677 5677 5674 5675
5798 5796 5796 5792 5797 5799 5789 5788 5788 5797 5800 5796 5798 5801 5804 5800 5800 5798 5796 5791 5784 5776 5769 5763 5756 5746 5735 5728 5720 5708 5704 5698 5690 5681 5677 5682 5673 5667 5669 5671 5670 5670 5672 5675 5671 5669 5666 5669 5667
5789 5789 5790 5787 5792 5792 5790 5780 5783 5789 5790 5789 5788 5790 5796 5802 5797 5789 5789 5786 5780 5772 5764 5758 5750 5737 5728 5722 5713 5709 5700 5691 5681 5671 5661 5666 5663 5658 5660 5664 5666 5666 5668 5663 5665 5663 5664 5664 5661
5787 5792 5784 5783 5785 5791 5788 5778 5744 5780 5791 5791 5787 5789 5789 5787 5791 5785 5780 5778 5776 5767 5759 5751 5739 5728 5723 5716 5709 5699 5691 5686 5678 5666 5655 5649 5649 5649 5649 5658 5658 5659 5659 5661 5659 5658 5657 5658 5657
5784 5791 5783 5778 5771 5768 5784 5758 5748 5781 5778 5781 5779 5779 5778 5778 5779 5779 5775 5769 5767 5762 5753 5739 5729 5723 5720 5715 5708 5699 5698 5688 5680 5666 5651 5644 5644 5645 5646 5653 5653 5656 5657 5657 5655 5653 5652 5648 5649
5776 5789 5782 5780 5772 5776 5782 5771 5752 5744 5768 5764 5772 5771 5771 5768 5766 5764 5762 5753 5749 5743 5738 5731 5726 5722 5717 5712 5707 5699 5696 5693 5676 5664 5653 5647 5642 5648 5648 5646 5651 5650 5649 5648 5647 5645 5641 5644 5640
5790 5782 5783 5785 5788 5759 5777 5770 5714 5687 5758 5761 5771 5767 5764 5763 5758 5752 5745 5742 5742 5738 5731 5726 5722 5720 5715 5709 5703 5699 5696 5689 5676 5667 5660 5655 5651 5650 5649 5648 5647 5645 5645 5641 5640 5638 5635 5631 5631
5781 5772 5759 5744 5754 5733 5775 5767 5756 5762 5768 5770 5767 5764 5760 5759 5753 5749 5743 5736 5735 5729 5724 5722 5720 5717 5714 5707 5700 5695 5692 5686 5677 5669 5666 5663 5660 5658 5654 5650 5647 5643 5641 5638 5636 5631 5628 5622 5620
5778 5770 5761 5741 5749 5740 5778 5762 5760 5781 5780 5777 5770 5764 5760 5754 5751 5747 5745 5742 5735 5730 5728 5726 5723 5718 5717 5707 5703 5697 5693 5687 5682 5675 5673 5664 5664 5660 5654 5649 5646 5643 5638 5633 5629 5625 5620 5616 5610
5771 5759 5780 5758 5774 5760 5782 5777 5783 5780 5774 5771 5767 5762 5756 5754 5752 5750 5748 5748 5747 5743 5738 5734 5727 5720 5719 5713 5707 5699 5693 5686 5682 5679 5671 5663 5661 5663 5652 5646 5642 5638 5634 5627 5622 5620 5615 5608 5602
5768 5774 5748 5760 5731 5735 5767 5763 5770 5761 5765 5769 5765 5761 5756 5755 5754 5746 5742 5740 5739 5738 5740 5733 5726 5721 5717 5710 5704 5702 5694 5687 5682 5672 5664 5659 5657 5658 5652 5644 5640 5635 5629 5623 5619 5613 5608 5604 5600
5757 5756 5753 5750 5746 5733 5735 5755 5785 5773 5773 5769 5773 5772 5763 5756 5752 5745 5741 5740 5741 5742 5741 5734 5727 5718 5710 5709 5707 5700 5692 5684 5676 5669 5664 5660 5655 5652 5646 5640 5635 5630 5624 5620 5616 5610 5603 5597 5591
5757 5753 5753 5733 5734 5745 5735 5742 5787 5775 5774 5768 5769 5770 5765 5753 5747 5745 5746 5742 5739 5738 5736 5732 5723 5719 5710 5704 5699 5692 5686 5679 5673 5667 5661 5655 5649 5646 5641 5638 5632 5626 5623 5617 5610 5602 5599 5590 5586